Regional Weather Roundup
Issued by NWS

Home | Current Version | Previous Version | Text Only | Print | Product List | Glossary Off
Versions: 1 2 3 4 5 6 7 8 9 10 11 12 13 14 15 16 17 18 19 20 21 22 23 24 25 26 27 28 29 30 31 32 33 34 35 36 37 38 39 40 41 42 43 44 45 46 47 48 49 50

973
ASUS43 KDMX 280301
RWRIA

WEATHER ROUNDUP FOR IOWA
NATIONAL WEATHER SERVICE DES MOINES IA
1000 PM CDT THU APR 27 2017

NOTE: "FAIR" INDICATES FEW OR NO CLOUDS BELOW 12,000 FEET WITH NO
SIGNIFICANT WEATHER AND/OR OBSTRUCTIONS TO VISIBILITY.

* - THESE STATIONS ARE NOT NWS STATIONS...THUS NOT UNDER NWS
QUALITY CONTROL.  THEY ALSO DO NOT REPORT WEATHER SUCH
AS PRECIPITATION OR FOG.

IAZ001>003-012>014-020>022-031>034-043>046-280400-
   NORTHWEST IOWA

CITY           SKY/WX    TMP DP  RH WIND       PRES   REMARKS
CARROLL *      CLEAR     41  34  75 NE8       29.80R
CHEROKEE *     CLEAR     36  33  89 NE6       29.81R WCI  32
DENISON *      CLOUDY    45  34  65 NE5       29.80R
LE MARS *      CLEAR     39  36  87 CALM      29.80R
ORANGE CITY *  CLEAR     41  36  81 E3        29.80R
SHELDON *      CLEAR     36  32  87 SE6       29.79R WCI  31
SIOUX CITY     CLEAR     43  32  65 NE3       29.78R
SPENCER        CLEAR     34  31  88 NE3       29.82R
STORM LAKE *   CLEAR     37  32  81 E6        29.80R WCI  33
$$

IAZ055>058-069>071-079>083-090>094-280400-
   SOUTHWEST IOWA

CITY           SKY/WX    TMP DP  RH WIND       PRES   REMARKS
ATLANTIC *     PTCLDY    46  36  66 CALM      29.78R
AUDUBON *      PTCLDY    37  34  87 CALM      29.80R
CLARINDA *       N/A     54  36  50 E3        29.79S
COUNCIL BLFS * CLOUDY    52  36  54 E6        29.77R
CRESTON *      CLOUDY    52  34  50 CALM      29.80R
HARLAN  *      CLOUDY    45  34  65 CALM      29.81R
LAMONI         CLOUDY    52  40  63 N7        29.79R
RED OAK *      CLOUDY    50  39  66 NE5       29.77S
SHENANDOAH *   CLOUDY    54  37  54 E5        29.77S
$$

IAZ047>049-059>061-072>074-084-280400-
   CENTRAL IOWA

CITY           SKY/WX    TMP DP  RH WIND       PRES   REMARKS
AMES           CLOUDY    40  33  76 N9        29.82R WCI  34
ANKENY *       CLOUDY    41  32  70 CALM      29.82R
BOONE *        CLOUDY    39  32  75 N9        29.81R WCI  33
CHARITON *     CLOUDY    52  37  58 N3        29.80R
DES MOINES     CLOUDY    47  34  60 NE6       29.81R
GRINNELL*      CLOUDY    38  32  78 NE6       29.83R WCI  34
KNOXVILLE *    PTCLDY    45  36  70 NE6       29.80R
MARSHALLTOWN   CLEAR     36  30  79 N8        29.81R WCI  30
NEWTON *       PTCLDY    41  32  70 NE6       29.81R
PELLA *        PTCLDY    43  35  73 NE3       29.83R
PERRY *          N/A     44  32  63 N9        29.81R
$$

IAZ004>006-015-016-023>025-035-036-280400-
   NORTH CENTRAL IOWA

CITY           SKY/WX    TMP DP  RH WIND       PRES   REMARKS
ALGONA *       PTCLDY    34  32  93 NE9       29.82R WCI  26
CLARION *      CLOUDY    39  34  81 W7        29.82R WCI  34
ESTHERVILLE    CLEAR     31  29  92 N7        29.82R WCI  24
FORT DODGE *   CLEAR     36  28  75 CALM      29.82R
MASON CITY     CLOUDY    36  29  75 NW9       29.84R WCI  29
FOREST CITY *  CLOUDY    36  27  69 NW7       29.82R WCI  30
WEBSTER CITY * CLEAR     34  30  86 N8        29.80R WCI  27
IOWA FALLS *     N/A     35  29  79 NW7       29.82R WCI  29
$$

IAZ007>011-017>019-026>030-037>042-050>054-066-280400-
   NORTHEAST IOWA

CITY           SKY/WX    TMP DP  RH WIND       PRES   REMARKS
CEDAR RAPIDS   CLEAR     37  34  89 N5        29.82R WCI  33
CHARLES CITY * CLOUDY    37  28  70 W12       29.82R WCI  30
CLINTON *      CLEAR     38  35  89 W5        29.84R WCI  34
DECORAH *      CLOUDY    36  28  75 W8        29.79R WCI  29
DUBUQUE        CLEAR     35  30  82 W6        29.81R WCI  30
MONTICELLO *   CLEAR     37  32  81 W3        29.82R
WATERLOO       CLEAR     38  29  70 NW6       29.81R WCI  33
$$

IAZ064-065-067-068-078-280400-
   EAST CENTRAL IOWA

CITY           SKY/WX    TMP DP  RH WIND       PRES   REMARKS
DAVENPORT      CLEAR     38  34  85 CALM      29.83R
IOWA CITY      CLEAR     42  33  70 N6        29.84R
MUSCATINE *    PTCLDY    41  37  87 CALM      29.83R
QUAD CITIES    CLEAR     37  34  89 CALM      29.83R
$$

IAZ062-063-075>077-085>089-095>099-280400-
   SOUTHEAST IOWA

CITY           SKY/WX    TMP DP  RH WIND       PRES   REMARKS
BURLINGTON     PTCLDY    47  44  90 CALM      29.81R
FAIRFIELD *    CLOUDY    45  39  81 NE7       29.81R
FORT MADISON * PTCLDY    48  45  87 S3        29.83R
KEOKUK *       CLOUDY    50  45  81 S3        29.82R
OSKALOOSA *      N/A     44  36  74 N10       29.82R
OTTUMWA        CLOUDY    47  39  74 NE9       29.81R
WASHINGTON *   PTCLDY    41  39  93 NE6       29.83R
$$

ABBREVIATIONS USED IN REMARKS
   TC - TEMPERATURES IN CELSIUS
  WCI - WIND CHILL INDEX
   HX - HEAT INDEX
  VSB - VISIBILITY
$$





USA.gov is the U.S. government's official web portal to all federal, state and local government web resources and services.